Regional Weather Roundup
Issued by NWS Boston, MA

Current Version | Previous Version | Text Only | Print | Product List | Glossary Off
Versions: 1 2 3 4 5 6 7 8 9 10 11 12 13 14 15 16 17 18 19 20 21 22 23 24 25 26 27 28 29 30 31 32 33 34 35 36 37 38 39 40 41 42 43 44 45 46 47 48 49 50
000 ASUS41 KBOX 190610 RWRBOX REGIONAL WEATHER ROUNDUP NATIONAL WEATHER SERVICE BOSTON/NORTON MA 200 AM EDT THU APR 19 2018 NOTE: "FAIR" INDICATES FEW OR NO CLOUDS BELOW 12,000 FEET WITH NO SIGNIFICANT WEATHER AND/OR OBSTRUCTIONS TO VISIBILITY. MAZALL-190700- EASTERN MASSACHUSETTS CITY SKY/WX TMP DP RH WIND PRES REMARKS BOSTON PTCLDY 43 29 57 W9 29.76S 6HR MIN TEMP: 43; 6HR MAX TEMP: 48; BEVERLY FAIR 39 28 64 SW5 29.75R LAWRENCE FAIR 42 29 59 SW6 29.76S BEDFORD FAIR 39 28 64 CALM 29.74F BLUE HILL N/A 37 29 72 W10 29.72F WCI 30 NORWOOD FAIR 41 30 65 CALM 29.75F MARSHFIELD FAIR 37 30 75 CALM 29.76F PLYMOUTH FAIR 35 29 78 CALM 29.77S TAUNTON FAIR 35 30 82 SE3 29.76F NEW BEDFORD FAIR 36 33 89 CALM 29.76F $$ MAZALL-190700- CAPE COD AND THE ISLANDS CITY SKY/WX TMP DP RH WIND PRES REMARKS FALMOUTH N/A 37 36 93 CALM 29.77 HYANNIS FAIR 41 36 82 W6 29.76R CHATHAM FAIR 41 36 82 SW3 29.79R PROVINCETOWN FAIR 42 33 70 W10 29.78R NANTUCKET FAIR 41 40 96 SW10 29.78F MARTHAS VNYRD MOCLDY 42 37 82 W8 29.77F $$ MAZALL-190700- CENTRAL AND WESTERN MASSACHUSETTS CITY SKY/WX TMP DP RH WIND PRES REMARKS WORCESTER FAIR 34 26 72 SW6 29.73F WCI 29 6HR MIN TEMP: 34; 6HR MAX TEMP: 41; FITCHBURG CLOUDY 44 29 55 W5 29.75F ORANGE CLOUDY 40 28 62 W7 29.76F SPRINGFIELD N/A 33 29 85 CALM 29.75F WESTFIELD CLOUDY 34 31 88 CALM 29.76F NORTH ADAMS CLOUDY 37 28 70 W6 29.73F PITTSFIELD CLOUDY 36 26 67 NW5 29.71F $$ RIZALL-190700- RHODE ISLAND CITY SKY/WX TMP DP RH WIND PRES REMARKS PROVIDENCE FAIR 40 32 73 W3 29.78F 6HR MIN TEMP: 40; 6HR MAX TEMP: 50; NEWPORT MOCLDY 41 36 82 W3 29.77F BLOCK ISLAND LGT RAIN 42 40 92 SW9 29.79S SMITHFIELD FAIR 33 28 81 MISG 29.75F WESTERLY LGT RAIN 42 39 89 CALM 29.78F $$ CTZALL-190700- CONNECTICUT CITY SKY/WX TMP DP RH WIND PRES REMARKS BRADLEY INTL MOCLDY 38 31 76 CALM 29.75F 6HR MIN TEMP: 33; 6HR MAX TEMP: 47; HARTFORD CLOUDY 40 33 76 CALM 29.76F BRIDGEPORT CLOUDY 44 32 62 N5 29.76F DANBURY CLOUDY 38 31 76 CALM 29.75F GROTON CLOUDY 42 39 89 N5 29.76F NEW HAVEN CLOUDY 43 35 73 CALM 29.76F CHESTER CLOUDY 43 32 65 MISG 29.75F MERIDEN CLOUDY 38 33 82 CALM 29.77F WILLIMANTIC CLOUDY 36 32 85 CALM 29.77F OXFORD CLOUDY 38 31 76 CALM 29.76F $$ MEZ002-015-021-024-NHZ003-005-008-011-012-014-VTZ005-008-190700- NORTHERN NEW ENGLAND CITY SKY/WX TMP DP RH WIND PRES REMARKS PORTLAND ME FAIR 42 30 62 SW7 29.69R 6HR MIN TEMP: 42; 6HR MAX TEMP: 47; BANGOR ME CLOUDY 41 31 67 SW3 29.62S CONCORD NH FAIR 34 27 75 S5 29.73R WCI 30 MANCHESTER NH FAIR 41 27 57 S3 29.73S NASHUA NH FAIR 40 28 62 W6 29.74F PORTSMOUTH NH PTCLDY 39 28 63 W7 29.71S JAFFREY NH CLOUDY 38 29 70 W5 29.72F KEENE NH CLOUDY 40 28 62 SW6 29.74F BURLINGTON VT CLOUDY 40 29 64 S3 29.69F MT. WASHINGTON BLWGSNOW 16 16 100 W46 N/A VSB 0 WCI -8 $$ NYZ052-076-190700- EASTERN NEW YORK CITY SKY/WX TMP DP RH WIND PRES REMARKS ALBANY CLOUDY 39 27 62 NW6 29.75F 6HR MIN TEMP: 39; 6HR MAX TEMP: 42; NEW YORK CITY CLOUDY 47 32 56 NE9 29.74F 6HR MIN TEMP: 47; 6HR MAX TEMP: 53; 6HR PCP: TRACE; $$ ANZALL-190700- MARINE OBSERVATIONS STATION/POSITION TIME TEMP WIND PRES VSBY WAVE AIR SEA DIR/SP/G HT/PER (UTC) (F) (DEG/KT/KT) (MB) (MI) (FT/S) BOSTON BUOY 0550 43 43 240/ 10/ 12 1006.7R 2/10 BUZZARDS BAY 0500 42 250/ 15/ 17 1009.2R NANTUCKET SOUND 0450 43 43 240/ 16/ 19 1007.9 2/ 3 MASS BAY-STELLWA 0504 42 42 1005.8R ISLE OF SHOALS 0600 41 240/ 15/ 16 1006.3S S OF BLOCK IS 0513 41 N/A 4/ 5 $$ ......................KEY......................... SKY/WX - SKY CONDITION/PRESENT WEATHER TMP - TEMPERATURE IN FAHRENHEIT DWPT - DEWPOINT IN FAHRENHEIT RH - RELATIVE HUMIDITY IN PERCENT WIND - DIRECTION AND SPEED IN MPH PRES - MEAN SEA LEVEL PRESSURE IN INCHES OF HG WCI - WIND CHILL INDEX VSB - VISIBILITY IN MILES HX - HEAT INDEX TC - TEMPERATURE IN CELSIUS VRB - VARIABLE WIND DIRECTION N/A - NOT AVAILABLE

USA.gov is the U.S. government's official web portal to all federal, state and local government web resources and services.